#timestamp,LO_Frequency,Hit,StdDev 
1617955215.2,286047002.4,N
1617955235.0,286047000.1,N
1617955235.9,286047000.1,N
1617955255.8,286047002.0,N
1617955275.6,286047002.3,N
1617955295.4,286047000.3,N
1617955315.3,286046999.4,N
1617955335.1,286046998.6,N
1617955355.9,286046999.8,N
1617955375.7,286046998.5,N
1617955395.5,286047000.5,N
1617955415.4,286047001.6,N
1617955435.2,286047003.2,N
1617955455.1,286047002.0,N
1617955456.0,286047002.0,N
1617955475.8,286047002.4,N
1617955495.6,286047000.5,N
1617955515.5,286047002.6,N
1617955535.3,286047000.1,N
1617955555.1,286047001.3,N
1617955575.9,286046999.8,N
1617955595.7,286047000.9,N
1617955615.6,286046996.6,N
1617955635.4,286046997.1,N
1617955655.2,286046998.9,N
1617955675.1,286047000.2,N
1617955676.0,286047000.2,N
1617955695.8,286047004.3,N
1617955715.7,286047001.5,N
1617955735.5,286046998.1,N
1617955755.3,286047002.1,N
1617955775.2,286046998.5,N
1617955795.0,286046998.9,N
1617955795.9,286046998.9,N
1617955815.7,286047000.9,N
1617955835.6,286046999.9,N
1617955855.4,286047002.4,N
1617955875.3,286046998.2,N
1617955895.1,286046998.6,N
1617955915.8,286046999.1,N
1617955935.7,286046999.3,N
1617955955.5,286047000.4,N
1617955975.3,286046998.5,N
1617955995.2,286047002.4,N
1617956015.0,286047004.2,N
1617956015.9,286047004.2,N
1617956035.8,286047003.9,N
1617956055.6,286047001.8,N
1617956075.4,286047002.7,N
1617956095.3,286047003.3,N
1617956115.1,286047003.2,N
1617956135.9,286047003.0,N
1617956155.7,286047002.1,N
1617956175.5,286047002.8,N
1617956195.4,286046999.8,N
1617956215.2,286047001.0,N
1617956235.0,286046998.2,N
1617956235.9,286046998.2,N
1617956255.8,286047000.7,N
1617956275.6,286047000.6,N
1617956295.5,286047000.8,N
1617956315.3,286047002.7,N
1617956335.1,286047002.5,N
1617956355.9,286047000.7,N
1617956375.7,286046997.1,N
1617956395.5,286046995.0,N
1617956415.4,286046997.2,N
1617956435.2,286046996.8,N
1617956455.1,286046998.5,N
1617956456.0,286046998.5,N
1617956475.8,286047000.3,N
1617956495.6,286046999.5,N
1617956515.5,286046997.8,N
1617956535.3,286046993.8,N
1617956555.1,286046994.6,N
1617956575.9,286046992.0,N
1617956595.7,286046990.1,Y
1617956615.6,286046992.7,P
1617956635.4,286046993.2,N
1617956655.2,286046992.5,N
1617956675.1,286046994.2,N
1617956676.0,286046994.2,N
1617956695.8,286046994.1,N
1617956715.7,286046994.5,N
1617956735.5,286046992.2,Y
1617956755.3,286046999.0,P
1617956775.2,286046998.5,N
1617956795.0,286046998.3,N
1617956795.9,286046998.3,N
1617956815.8,286046998.8,N
1617956835.6,286047001.2,N
1617956855.4,286047000.4,N
1617956875.3,286047000.9,N
1617956895.1,286046998.5,N
1617956896.0,286046998.5,N
1617956915.8,286047000.0,N
1617956935.7,286047000.6,N
1617956955.5,286046999.2,N
1617956975.3,286047001.2,N
1617956995.2,286047000.2,N
1617957015.0,286047000.3,N
1617957015.9,286047000.3,N
1617957035.8,286046998.5,N
1617957055.6,286047000.7,N
1617957075.4,286047001.0,N
1617957095.3,286047002.7,N
1617957115.1,286047002.5,N
1617957135.8,286047002.9,N
1617957155.7,286047004.3,N
1617957175.5,286047000.3,N
1617957195.4,286046999.6,N
1617957215.2,286046996.5,N
1617957235.0,286046997.8,N
1617957235.9,286046997.8,N
1617957255.8,286046994.9,N
1617957275.6,286046996.5,N
1617957295.5,286046999.6,N
1617957315.3,286046999.1,N
1617957335.1,286046996.6,N
1617957355.9,286046997.0,N
1617957375.7,286046997.2,N
1617957395.6,286047000.0,N
1617957415.4,286046998.4,N
1617957435.2,286047001.2,N
1617957455.1,286047000.5,N
1617957456.0,286047000.5,N
1617957475.8,286047001.6,N
1617957495.6,286047002.0,N
1617957515.5,286047000.2,N
1617957535.3,286047000.8,N
1617957555.2,286047000.7,N
1617957575.9,286047000.4,N
1617957595.7,286047000.8,N
1617957615.6,286047000.5,N
1617957635.4,286047001.1,N
1617957655.2,286046996.6,N
1617957675.1,286046999.3,N
1617957676.0,286046999.3,N
1617957695.8,286046995.6,N
1617957715.7,286046996.3,N
1617957735.5,286046995.9,N
1617957755.3,286046996.0,N
1617957775.2,286046994.2,N
1617957795.0,286046993.6,N
1617957795.9,286046993.6,N
1617957815.8,286046997.1,N
1617957835.6,286047001.2,N
1617957855.4,286046998.4,N
1617957875.3,286046996.9,N
1617957895.1,286046995.2,N
1617957915.9,286046995.4,N
1617957935.7,286046995.3,N
1617957955.5,286046996.4,N
1617957975.4,286046995.2,N
1617957995.2,286046996.5,N
1617958015.1,286046996.9,N
1617958016.0,286046996.9,N
1617958035.8,286046999.3,N
1617958055.6,286046996.8,N
1617958075.5,286046997.6,N
1617958095.3,286046998.0,N
1617958115.2,286046993.7,N
1617958135.9,286046996.0,N
1617958155.7,286046995.1,N
1617958175.6,286046997.9,N
1617958195.4,286046995.4,N
1617958215.3,286046996.2,N
1617958235.1,286046994.4,Y
1617958236.0,286046994.4,P
1617958255.8,286046995.8,P
1617958275.7,286046994.0,P
1617958295.5,286046994.7,Y
1617958315.4,286046999.4,P
1617958335.2,286046999.6,N
1617958355.0,286046999.4,N
1617958355.9,286046999.4,N
1617958375.8,286046999.6,N
1617958395.6,286046996.8,N
1617958415.4,286046998.8,N
1617958435.3,286046998.1,N
1617958455.1,286046998.1,N
1617958475.9,286046996.5,N
1617958495.7,286046999.4,N
1617958515.5,286046999.5,N
1617958535.4,286046997.4,N
1617958555.2,286046998.2,N
1617958575.1,286046999.8,N
1617958576.0,286046999.8,N
1617958595.8,286046996.9,N
1617958615.6,286046997.6,N
1617958635.5,286046995.1,Y
1617958655.3,286046997.3,P
1617958675.2,286046999.2,N
1617958695.9,286047000.6,N
1617958715.7,286047001.5,N
1617958735.6,286047004.0,N
1617958755.4,286047003.9,N
1617958775.3,286047002.0,N
1617958795.1,286047002.2,N
1617958796.0,286047002.2,N
